Weather History for KMLP - January, 2013

Change the Weather History Date:

Thursday, January 17, 2013

  Actual Average (KCOE) Record (KCOE)
Temperature  
Mean Temperature 28 °F -  
Max Temperature 30 °F 32 °F - (-1)
Min Temperature 25 °F 23 °F - (-1)
Degree Days  
Heating Degree Days 38    
Moisture  
Dew Point 18 °F    
Average Humidity 70    
Maximum Humidity 75    
Minimum Humidity 61    
Precipitation  
Precipitation 0.00 in - - ()
Sea Level Pressure  
Sea Level Pressure 30.41 in    
Wind  
Wind Speed 8 mph (SW)    
Max Wind Speed 10 mph    
Max Gust Speed 16 mph    
Visibility 10 miles    
Events      
Averages and records for this station are not official NWS values.
T = Trace of Precipitation, MM = Missing Value Source: NWS Daily Summary

Daily Weather History Graph

Daily Weather History Graph

Search for Another Location

Airport or City:

Trip Planner

Search our weather history database for the weather conditions in past years. The results will help you decide how hot, cold, wet, or windy it might be!

Date:

Astronomy

Jan. 17, 2013 Rise Set
Actual Time 7:23 AM PST 4:22 PM PST
Civil Twilight 6:49 AM PST 4:56 PM PST
Nautical Twilight 6:11 AM PST 5:34 PM PST
Astronomical Twilight 5:34 AM PST 6:11 PM PST
Moon 10:02 AM PST (1/17) 11:51 PM PST (1/17)
Length of Visible Light 10h 07m
Length of Day
8h 58m
Waxing Crescent, 39% of the Moon is Illuminated
Jan 17
Waxing Crescent
Jan 18
First Quarter
Jan 26
Full
Feb 3
Last Quarter
Feb 9
New

Hourly Weather History & Observations

Time (PST) Temp. Windchill Dew Point Humidity Pressure Visibility Wind Dir Wind Speed Gust Speed Precip Events Conditions
1:53 AM 27.0 °F 19.5 °F 15.1 °F 61% 30.48 in 10.0 mi SW 6.9 mph - N/A   Clear
2:53 AM 26.1 °F 17.6 °F 17.1 °F 69% 30.48 in 10.0 mi SSW 8.1 mph - N/A   Clear
3:53 AM 26.1 °F 18.4 °F 17.1 °F 69% 30.48 in 10.0 mi SW 6.9 mph - N/A   Clear
4:53 AM 26.1 °F 17.6 °F 16.0 °F 66% 30.48 in 10.0 mi SW 8.1 mph - N/A   Clear
5:53 AM 25.0 °F 14.8 °F 17.1 °F 72% 30.48 in 10.0 mi SW 10.4 mph - N/A   Clear
6:53 AM 25.0 °F 15.5 °F 17.1 °F 72% 30.48 in 10.0 mi SW 9.2 mph - N/A   Clear
7:53 AM 25.0 °F 15.5 °F 18.0 °F 75% 30.49 in 10.0 mi SW 9.2 mph - N/A   Clear
8:53 AM 27.0 °F 19.5 °F 19.9 °F 75% 30.48 in 10.0 mi SW 6.9 mph - N/A   Clear
9:53 AM 28.0 °F 21.7 °F 21.0 °F 75% 30.48 in 10.0 mi SSW 5.8 mph - N/A   Clear
10:53 AM 28.9 °F 21.9 °F 21.0 °F 72% 30.46 in 10.0 mi SW 6.9 mph - N/A   Clear
11:53 AM 30.0 °F 22.4 °F 21.9 °F 72% 30.42 in 10.0 mi SW 8.1 mph - N/A   Clear
12:53 PM 30.0 °F 21.7 °F 19.9 °F 66% 30.39 in 10.0 mi SW 9.2 mph 16.1 mph N/A   Clear
1:53 PM 30.9 °F 27.5 °F 21.0 °F 67% 30.38 in 10.0 mi Variable 3.5 mph - N/A   Clear
2:53 PM 28.9 °F 23.9 °F 19.9 °F 69% 30.38 in 10.0 mi Variable 4.6 mph - N/A   Clear
3:53 PM 27.0 °F 20.5 °F 19.9 °F 75% 30.38 in 10.0 mi West 5.8 mph - N/A   Clear
4:53 PM 27.0 °F 20.5 °F 18.0 °F 69% 30.38 in 10.0 mi West 5.8 mph - N/A   Clear
5:53 PM 27.0 °F 18.7 °F 17.1 °F 66% 30.38 in 10.0 mi WSW 8.1 mph - N/A   Clear
6:53 PM 26.1 °F 19.4 °F 17.1 °F 69% 30.37 in 10.0 mi SSW 5.8 mph - N/A   Clear
7:53 PM 26.1 °F 17.6 °F 17.1 °F 69% 30.35 in 10.0 mi SSW 8.1 mph - N/A   Clear
8:53 PM 25.0 °F 15.5 °F 16.0 °F 69% 30.33 in 10.0 mi SSW 9.2 mph - N/A   Clear
9:53 PM 25.0 °F 15.5 °F 16.0 °F 69% 30.32 in 10.0 mi SW 9.2 mph - N/A   Clear
10:53 PM 25.0 °F 14.8 °F 16.0 °F 69% 30.31 in 10.0 mi SW 10.4 mph - N/A   Clear
11:53 PM 25.0 °F 14.8 °F 16.0 °F 69% 30.29 in 10.0 mi SSW 10.4 mph 16.1 mph N/A   Clear